{"data":{"norad_id":48100,"epoch":"2026-05-25T01:13:17.747904Z","epoch_age_seconds":81132,"freshness":"FRESH","line1":"1 48100U 21027J   26145.05089986  .00001191  00000+0  50135-4 0  9997","line2":"2 48100  53.1582 157.3230 0001180  83.2557 276.8579 15.31709456284380","mean_motion":15.31709456,"eccentricity":0.000118,"inclination_deg":53.1582,"raan_deg":157.323,"arg_perigee_deg":83.2557,"mean_anomaly_deg":276.8579,"bstar":5.0135e-5,"rev_number":28438,"period_min":94.012607571184,"perigee_km":469.90364336742,"apogee_km":471.519971686,"semimajor_km":6848.8488075267,"source":"CELESTRAK","updated_at":"2026-05-25T13:38:16.642753Z"}}